GW0762 Weather Reports


Display with metric or nautical units.
time (UTC)temp
F
wind
direction
speed
MPH
gust
MPH
rain 1hr
in
rain 24hr
in
rain mn
in
humidity
%
barometer
mb
20260903093104 71 0 0.0 0.0 0.00 0.00 0.00 94 1017.3
20260903091605 71 0 0.0 0.0 0.00 0.00 0.00 94 1017.3
20260903090106 71 0 0.0 1.0 0.00 0.00 0.00 94 1017.2
20260903084604 71 0 0.0 1.0 0.00 0.00 0.00 94 1017.3
20260903083114 72 0 0.0 0.0 0.00 0.00 0.00 94 1017.3
20260903081607 72 0 0.0 1.0 0.00 0.00 0.00 94 1017.2
20260903080115 72 0 0.0 0.0 0.00 0.00 0.00 94 1017.3
20260903074638 72 0 0.0 0.0 0.00 0.00 0.00 94 1017.1
20260903073116 72 0 0.0 0.0 0.00 0.00 0.00 94 1017.0
20260903071605 72 0 0.0 0.0 0.00 0.00 0.00 94 1016.9
20260903070114 73 0 0.0 0.0 0.00 0.00 0.00 94 1017.0
20260903064603 73 0 0.0 0.0 0.00 0.00 0.00 94 1017.1
20260903063110 73 0 0.0 0.0 0.00 0.00 0.00 94 1017.1
20260903061615 73 0 0.0 1.0 0.00 0.00 0.00 94 1017.0
20260903060107 73 0 0.0 0.0 0.00 0.00 0.00 94 1016.9
20260903054605 73 0 0.0 0.0 0.00 0.00 0.00 93 1016.9
20260903053104 74 0 0.0 1.0 0.00 0.00 0.00 93 1017.0
20260903051607 74 0 0.0 0.0 0.00 0.00 0.00 93 1017.0
20260903044604 74 0 0.0 0.0 0.00 0.00 0.00 93 1016.7
20260903043103 74 0 0.0 0.0 0.00 0.00 0.00 93 1016.8
20260903041637 75 0 0.0 0.0 0.00 0.00 0.00 93 1016.8
20260903040105 75 0 0.0 1.0 0.00 0.00 0.00 93 1016.9
20260903034602 75 0 0.0 0.0 0.00 0.00 0.00 93 1016.8
20260903033102 75 0 0.0 0.0 0.00 0.00 0.00 93 1017.0
20260903031610 76 0 0.0 1.0 0.00 0.00 0.00 93 1017.0
20260903030105 76 0 0.0 0.0 0.00 0.00 0.00 93 1017.2
20260903024604 76 0 0.0 0.0 0.00 0.00 0.00 93 1017.1
20260903023115 76 0 0.0 0.0 0.00 0.00 0.00 92 1017.0
20260903021604 77 0 0.0 0.0 0.00 0.00 0.00 92 1016.9
20260903020120 77 0 0.0 1.0 0.00 0.00 0.00 92 1017.1
20260903014622 77 0 0.0 0.0 0.00 0.00 0.00 92 1016.9
20260903013115 78 0 0.0 0.0 0.00 0.00 0.00 92 1016.9
20260903011624 78 0 0.0 0.0 0.00 0.00 0.00 91 1016.8
20260903010113 78 0 0.0 0.0 0.00 0.00 0.00 91 1016.5
20260903004608 79 0 0.0 0.0 0.00 0.00 0.00 91 1016.3
20260903003127 79 0 0.0 0.0 0.00 0.00 0.00 90 1016.2
20260903001605 80 0 0.0 0.0 0.00 0.00 0.00 90 1016.1
20260903000108 81 0 0.0 0.0 0.00 0.00 0.00 89 1016.2
20260902234610 81 0 0.0 0.0 0.00 0.00 0.00 88 1016.1
20260902233104 82 0 0.0 0.0 0.00 0.00 0.00 86 1016.1
20260902231603 83 0 0.0 0.0 0.00 0.00 0.00 83 1016.3
20260902230106 85 0 0.0 1.0 0.00 0.00 0.00 79 1016.3
20260902224625 87 213 0.0 2.0 0.00 0.00 0.00 76 1016.3
20260902223107 89 0 0.0 2.0 0.00 0.00 0.00 74 1016.3
20260902221608 90 213 0.0 2.0 0.00 0.00 0.00 72 1016.3
20260902220119 90 0 0.0 2.0 0.00 0.00 0.00 72 1016.3
20260902214616 91 213 0.0 2.0 0.00 0.00 0.00 71 1016.4
20260902213106 91 213 0.0 2.0 0.00 0.00 0.00 71 1016.4
20260902211602 92 0 0.0 3.0 0.00 0.00 0.00 69 1016.5
20260902210121 92 0 1.0 3.0 0.00 0.00 0.00 67 1016.5
20260902204623 92 0 0.0 3.0 0.00 0.00 0.00 64 1016.6
20260902203125 92 273 0.0 4.0 0.00 0.00 0.00 65 1016.8
20260902201614 93 0 1.0 3.0 0.00 0.00 0.00 65 1017.0
20260902200115 93 202 0.0 3.0 0.00 0.00 0.00 64 1017.2
20260902194603 94 173 1.0 6.0 0.00 0.00 0.00 62 1017.3
20260902193106 94 163 0.0 4.0 0.00 0.00 0.00 67 1017.4
20260902191613 95 208 1.0 7.0 0.00 0.00 0.00 58 1017.5
20260902184658 94 200 1.0 4.0 0.00 0.05 0.00 59 1017.7
20260902183105 94 0 2.0 7.0 0.00 0.05 0.00 57 1017.8
20260902181604 93 190 1.0 3.0 0.00 0.05 0.00 62 1017.9
20260902180105 93 312 1.0 5.0 0.00 0.05 0.00 60 1018.1
20260902174608 93 117 1.0 4.0 0.00 0.15 0.00 61 1018.4
20260902173105 93 132 1.0 3.0 0.00 0.15 0.00 60 1018.4
20260902171606 92 163 1.0 8.0 0.00 0.15 0.00 67 1018.7
20260902170106 92 321 1.0 4.0 0.00 0.15 0.00 71 1018.9
20260902164612 91 238 1.0 7.0 0.00 0.15 0.00 73 1019.2
20260902163104 91 0 1.0 4.0 0.00 0.15 0.00 73 1019.4
20260902161600 90 0 1.0 4.0 0.00 0.15 0.00 77 1019.7
20260902160121 89 263 1.0 4.0 0.00 0.15 0.00 73 1019.7
20260902154606 88 167 0.0 4.0 0.00 0.15 0.00 78 1019.8
20260902153103 86 196 1.0 5.0 0.00 0.15 0.00 78 1019.8
20260902151615 85 158 1.0 3.0 0.00 0.15 0.00 82 1019.7
20260902144601 81 180 1.0 2.0 0.00 0.15 0.00 93 1019.5
20260902143109 79 180 0.0 2.0 0.00 0.15 0.00 95 1019.6
20260902141606 77 180 0.0 2.0 0.00 0.15 0.00 95 1019.5
20260902140100 76 180 1.0 2.0 0.00 0.15 0.00 95 1019.6
20260902134611 75 180 0.0 2.0 0.00 0.15 0.00 96 1019.4
20260902133108 73 203 0.0 2.0 0.00 0.15 0.00 95 1019.3
20260902131607 72 250 0.0 1.0 0.00 0.15 0.00 95 1019.4
20260902124606 70 0 0.0 1.0 0.00 0.15 0.00 95 1019.4
20260902123105 69 0 0.0 0.0 0.00 0.15 0.00 95 1019.4
20260902121603 69 0 0.0 0.0 0.00 0.15 0.00 95 1019.4
20260902114602 69 0 0.0 0.0 0.00 0.15 0.00 94 1019.2
20260902113104 68 0 0.0 0.0 0.00 0.15 0.00 94 1019.0
20260902111601 68 0 0.0 1.0 0.00 0.15 0.00 94 1018.9
20260902110104 69 0 0.0 0.0 0.00 0.15 0.00 94 1018.9
20260902104622 69 0 0.0 0.0 0.00 0.15 0.00 94 1018.9
20260902103058 69 0 0.0 0.0 0.00 0.15 0.00 94 1018.9
20260902101606 69 0 0.0 0.0 0.00 0.15 0.00 94 1018.9
20260902100123 69 0 0.0 0.0 0.00 0.15 0.00 94 1018.7
20260902094607 69 0 0.0 0.0 0.00 0.15 0.00 94 1018.7